CAPE
3129 3563 2958 1845 1805 1817 1712 1529 1203 1019 1143 1534 2009 2203 2122 1989 1910 1792 1869 2173 2333 2489 2393 2032 1920 1673 1040 702 341 186 510 763
1218 2524 3338 3573 3528 2022 1741 1728 1669 1400 1180 1067 1307 1734 2075 2156 2142 2006 1960 2032 1927 1979 2158 2019 1934 1805 1213 777 427 278 518 980
0 21 1123 2580 3268 3254 2498 1829 1814 1719 1595 1427 1293 1486 1614 1885 2084 2058 1887 1810 1740 1799 1845 2032 2055 1767 1129 808 578 670 740 706
0 0 0 1138 1896 2240 3309 3282 2677 2480 2361 2410 2426 2174 2046 1864 1681 1586 1624 1830 1725 1699 1436 1465 1638 1207 976 907 1094 903 836 661
0 0 564 178 1136 1559 2002 2240 2620 2730 2788 2862 2766 2780 2596 2254 2229 1881 1943 1727 1983 1607 1587 1499 1309 1355 1118 1671 1498 1114 935 660
0 0 0 678 1317 1697 1639 1675 1789 1878 2237 2899 2852 2695 2624 2564 2230 1902 1849 2069 1830 1674 1640 1677 1717 1936 1728 1818 1557 1202 859 602
0 0 0 0 55 244 2000 2596 2423 2284 2324 2332 2268 2293 2298 2170 2245 2092 2018 1771 1571 1637 1653 1614 1644 1654 1769 1922 1920 1646 1284 1111
0 0 0 0 0 1 7 87 583 1168 971 547 734 994 1870 2192 2090 1910 1818 1899 1948 1760 1600 1731 1819 1833 1696 1698 1774 1905 1864 1453
0 0 0 0 0 0 0 0 0 0 2 0 0 0 4 61 637 1417 1277 1406 1453 1566 1604 1570 1603 1654 1762 1951 1858 1723 1610 1747
0 0 0 0 0 0 0 0 0 0 0 0 0 0 0 0 0 0 45 147 283 1011 1367 1113 1086 1369 1392 1492 1546 1777 1744 1658
0 0 0 0 0 0 0 0 0 0 0 0 0 0 0 0 0 0 0 0 32 181 310 466 950 922 530 1105 1023 1220 1486 1569
0 0 0 0 0 0 0 0 0 0 0 0 0 0 0 0 0 0 0 0 0 4 128 352 351 289 544 724 710 957 1170 1097
0 0 0 0 0 0 0 0 0 0 0 0 0 0 1 0 0 0 0 0 0 0 1 1 1 122 276 594 469 492 452 481
0 0 0 0 0 0 0 0 0 0 0 0 0 0 0 0 2 3 3 2 2 3 3 2 0 0 17 104 82 160 522 432
0 0 0 0 0 0 0 0 0 0 0 0 0 0 1 3 1 1 0 4 3 2 2 3 4 0 0 18 30 26 121 434
0 0 0 0 0 0 0 0 0 0 0 0 0 0 1 1 1 1 1 1 3 4 6 4 3 3 2 0 1 21 18 150
0 0 0 1 0 0 0 0 0 0 0 0 0 0 0 0 1 1 2 2 4 4 4 3 3 4 4 3 7 0 0 82
0 0 0 1 1 1 1 1 0 0 0 0 2 0 0 0 0 1 1 3 4 5 4 4 3 3 2 3 4 5 7 3
0 0 0 0 0 1 1 1 2 0 0 1 2 3 3 7 4 1 1 2 4 4 4 3 3 2 3 2 3 3 3 2
0 0 0 0 0 1 1 3 1 2 1 3 3 4 5 5 4 5 1 3 1 3 2 5 3 1 1 2 2 0 2 3
CIN
-5 -0 -55 -154 -161 -155 -156 -153 -159 -169 -138 -110 -81 -67 -66 -67 -68 -71 -60 -38 -29 -12 -12 -30 -30 -38 -82 -118 -165 -176 -80 -1
-81 -16 -2 -0 -13 -140 -170 -162 -149 -157 -159 -154 -128 -88 -62 -52 -46 -45 -43 -33 -39 -36 -25 -27 -26 -26 -65 -117 -161 -169 -92 -19
-0 -29 -73 -11 -0 -10 -96 -165 -153 -143 -133 -139 -141 -88 -48 -46 -35 -23 -36 -44 -34 -32 -32 -24 -17 -23 -71 -121 -143 -94 -36 -21
-0 -0 -0 -87 -17 -1 -1 -3 -42 -51 -46 -15 -16 -3 -3 -1 -5 -59 -58 -37 -34 -30 -45 -48 -33 -26 -54 -99 -58 -49 -13 -2
-0 -14 -190 -192 -37 -4 -2 -2 -1 -1 -0 -4 -3 -1 -1 -2 -1 -4 -12 -53 -4 -12 -15 -20 -29 -15 -2 -14 -19 -18 -7 -2
-0 -0 -0 -224 -148 -4 -2 -1 -1 -2 -1 -0 -0 -0 -0 -0 -2 -7 -3 -0 -7 -3 -5 -1 -4 -1 -1 -2 -1 -3 -4 -3
-0 -0 -0 -0 -274 -355 -69 -23 -6 -4 -4 -0 -2 -1 -2 -2 -1 -2 -1 -3 -5 -2 -1 -3 -5 -3 -3 -5 -5 -2 -1 -2
-0 -0 -0 -0 -0 -0 -112 -451 -201 -75 -96 -165 -115 -73 -3 -0 -0 -0 -0 -2 -2 -4 -5 -1 -3 -3 -11 -12 -12 -5 -4 -0
-0 -0 -0 -0 -0 -0 -0 -0 -0 -0 -40 -0 -0 -0 -23 -264 -52 -0 -0 -0 -0 -2 -3 -3 -1 -0 -4 -0 -2 -5 -4 -10
-0 -0 -0 -0 -0 -0 -0 -0 -0 -0 -0 -0 -0 -0 -0 -0 -0 -127 -125 -130 -84 -3 -0 -14 -5 -3 -0 -4 -8 -1 -0 -2
-0 -0 -0 -0 -0 -0 -0 -0 -0 -0 -0 -0 -0 -0 -0 -0 -0 -0 -0 -0 -200 -95 -39 -12 -1 -5 -2 -0 -0 -6 -1 -1
-0 -0 -0 -0 -0 -0 -0 -0 -0 -0 -0 -0 -0 -0 -0 -0 -0 -0 -0 -0 -0 -29 -121 -31 -16 -18 -1 -0 -0 -1 -2 -2
-0 -0 -0 -0 -0 -0 -0 -0 -0 -0 -0 -0 -0 -0 -1 -0 -0 -0 -0 -0 -0 -0 -1 -1 -1 -42 -0 -0 -7 -6 -9 -10
-0 -0 -0 -0 -0 -0 -0 -0 -0 -0 -0 -0 -0 -0 -0 -0 -0 -0 -0 -0 -0 -0 -0 -0 -0 -0 -0 -27 -14 -8 -3 -11
-0 -0 -0 -0 -0 -0 -0 -0 -0 -0 -0 -0 -0 -1 -0 -0 -0 -0 -0 -0 -0 -0 -0 -0 -0 -0 -0 -2 -0 -1 -6 -19
-0 -0 -0 -0 -0 -0 -0 -0 -0 -0 -0 -0 -0 -0 -0 -0 -0 -0 -1 -0 -0 -0 -0 -0 -0 -0 -0 -0 -0 -1 -1 -2
-0 -1 -0 -1 -0 -1 -0 -0 -0 -0 -0 -0 -0 -0 -0 -1 -0 -1 -0 -0 -0 -0 -0 -0 -0 -0 -0 -0 -0 -0 -0 -0
-0 -0 -0 -1 -1 -0 -0 -0 -0 -0 -1 -0 -1 -0 -1 -1 -0 -0 -0 -0 -0 -0 -0 -0 -0 -0 -0 -0 -0 -0 -0 -1
-0 -0 -0 -1 -1 -1 -1 -0 -1 -1 -0 -1 -0 -0 -0 -0 -0 -0 -0 -0 -0 -0 -0 -0 -0 -0 -0 -0 -0 -0 -0 -0
-0 -0 -0 -1 -1 -0 -1 -0 -1 -1 -0 -1 -0 -0 -0 -0 -0 -0 -0 -0 -0 -0 -0 -0 -0 -0 -0 -0 -0 -0 -0 -0
Wind_Speed
19 18 14 13 12 11 10 8 9 8 8 8 8 8 8 7 6 5 4 4 4 4 3 2 2 3 5 6 7 6 6 7
22 20 19 17 14 9 7 6 6 7 8 10 11 11 11 10 10 9 9 8 7 6 6 6 5 5 6 7 6 6 5 3
24 25 24 21 19 14 12 12 12 13 13 12 11 11 11 11 12 13 11 11 11 11 11 11 11 11 9 8 7 7 5 4
27 27 29 28 25 19 17 15 14 12 11 12 12 12 12 12 12 11 13 14 15 14 15 14 14 14 12 9 10 9 7 6
29 31 31 30 29 25 19 18 15 13 14 16 17 17 16 16 15 13 14 15 15 16 17 17 16 15 15 10 10 10 10 10
31 32 32 32 32 30 24 24 20 19 19 19 21 22 21 20 20 16 14 14 15 17 17 19 19 18 19 26 17 14 13 13
33 33 33 33 31 32 31 31 29 28 26 24 23 23 24 23 22 22 21 21 18 17 18 18 19 20 21 23 28 24 23 24
33 33 33 32 30 31 30 29 28 25 24 26 26 26 27 27 27 26 26 24 23 22 21 20 21 21 22 21 22 25 26 21
31 31 32 31 30 29 29 28 27 26 25 25 27 27 28 29 29 28 28 28 28 26 25 25 23 23 23 22 22 23 23 26
30 30 30 29 28 26 25 25 25 25 25 25 27 27 28 29 29 30 30 30 30 30 32 32 28 27 28 26 24 24 29 28
31 30 31 30 27 25 25 24 24 24 25 26 27 27 29 29 29 28 29 30 30 31 33 35 38 38 39 25 28 27 29 32
30 30 31 30 28 25 24 25 24 24 25 26 27 28 29 29 29 29 30 30 31 32 34 34 36 40 44 42 39 35 32 32
30 31 31 30 29 29 28 28 27 27 26 26 27 28 28 28 29 30 31 32 33 35 36 39 39 36 40 40 40 39 44 44
30 30 31 31 30 29 28 28 26 25 26 26 27 27 27 27 28 29 30 32 33 34 36 39 39 37 40 42 43 39 36 35
29 30 31 31 31 30 29 25 24 26 26 28 28 28 28 28 29 30 32 32 33 34 35 37 40 40 40 39 40 40 37 30
28 29 30 29 30 30 29 28 28 28 28 29 28 28 29 29 30 31 32 33 33 35 36 39 39 41 40 38 41 43 46 45
27 27 28 28 29 29 29 29 28 29 29 31 30 29 29 29 31 31 31 33 34 35 36 38 38 40 40 40 41 42 41 44
27 28 28 29 29 29 29 30 29 29 31 30 30 31 32 33 33 32 33 34 37 38 37 38 38 38 38 39 40 39 40 41
27 27 28 29 29 29 29 29 29 28 30 31 31 31 32 35 36 36 35 36 37 37 37 37 37 37 38 38 38 39 39 40
26 27 28 29 29 28 28 29 28 28 29 29 28 30 32 34 35 35 34 35 35 36 36 35 36 37 38 38 39 37 38 39
Wind_Direction
338 337 348 344 341 339 338 340 332 327 322 317 312 304 298 293 287 273 261 269 279 291 300 320 349 5 4 5 7 14 17 7
326 328 331 331 336 337 338 339 333 324 315 310 307 305 299 291 286 281 279 274 269 273 287 297 308 321 330 337 346 350 359 19
321 316 316 319 319 325 327 322 323 321 319 315 311 305 295 285 282 285 274 271 278 280 287 293 299 305 308 314 323 329 337 342
316 316 307 303 306 313 317 318 319 319 316 316 315 308 303 295 286 263 275 276 278 280 284 287 292 297 299 292 303 306 309 312
312 307 305 302 299 304 312 313 314 315 313 310 308 310 307 304 298 295 284 276 278 277 280 282 283 287 291 285 295 290 297 301
314 312 308 304 300 298 303 302 304 305 310 308 305 305 304 303 300 295 288 290 279 276 280 280 279 279 283 289 290 292 292 296
315 314 312 310 306 304 300 299 299 299 302 306 306 305 305 305 302 300 297 295 290 284 279 279 278 279 279 282 284 286 288 293
318 317 316 313 311 307 306 306 307 308 308 307 310 309 307 305 303 303 299 296 291 289 285 281 278 277 275 274 276 281 284 283
322 322 321 318 315 313 310 309 308 307 308 310 310 309 308 306 306 307 307 304 297 294 289 286 282 278 271 269 270 273 277 279
327 327 327 325 322 319 318 316 313 312 311 311 311 310 309 306 304 303 303 304 304 301 296 291 287 280 272 265 268 272 276 276
327 329 328 327 326 324 322 319 318 315 314 313 311 310 308 306 305 305 306 304 302 301 298 294 290 290 290 291 273 276 275 274
332 332 332 329 327 326 323 321 320 318 316 314 313 311 310 306 304 304 305 304 304 303 301 299 295 292 291 294 292 284 279 272
334 332 333 332 329 323 319 317 316 317 317 317 315 313 311 307 305 304 304 302 302 303 301 297 294 296 293 292 289 286 283 282
336 335 334 332 330 329 325 320 319 318 320 319 317 315 314 310 309 305 305 303 302 303 304 299 295 296 292 291 290 291 288 284
336 336 335 335 333 331 329 328 323 321 319 317 315 313 311 310 307 304 302 302 302 303 302 302 297 294 292 291 289 287 295 290
338 339 338 339 337 334 331 325 321 321 319 317 314 314 311 308 305 304 303 303 301 302 302 299 297 294 294 290 288 286 284 288
350 348 347 344 341 337 332 328 324 319 319 314 313 311 310 310 307 306 306 304 305 304 302 302 299 294 292 291 290 287 288 283
350 350 350 350 348 345 339 330 325 320 317 316 315 310 306 304 308 307 307 303 300 299 302 301 300 298 296 292 289 288 287 286
348 347 345 344 342 342 343 342 338 328 319 315 313 311 309 306 303 304 301 299 300 300 303 302 302 299 298 294 294 290 289 286
347 346 343 344 344 344 341 338 341 337 328 322 320 312 313 315 309 304 304 299 300 302 304 305 304 303 298 297 294 293 291 287